#timestamp,LO_Frequency,Hit,StdDev 
1693072815.2,286046998.4,N
1693072835.0,286046996.9,N
1693072835.9,286046996.9,N
1693072855.8,286046996.7,N
1693072875.6,286046997.6,N
1693072895.4,286046995.0,Y
1693072915.3,286046997.9,P
1693072935.1,286046997.5,P
1693072955.8,286046997.8,P
1693072975.7,286046996.9,Y
1693072995.5,286046998.2,P
1693073015.4,286046998.6,P
1693073035.2,286046998.8,P
1693073055.0,286047001.0,Y
1693073055.9,286047001.0,P
1693073075.8,286047002.1,N
1693073095.6,286047004.4,N
1693073115.5,286047004.2,N
1693073135.3,286047004.1,N
1693073155.1,286047005.5,N
1693073175.9,286047005.9,N
1693073195.7,286047003.0,N
1693073215.5,286047003.4,N
1693073235.4,286047003.4,N
1693073255.2,286047004.1,N
1693073275.1,286047004.4,N
1693073276.0,286047004.4,N
1693073295.8,286047004.1,N
1693073315.6,286047002.9,N
1693073335.5,286047005.8,Y
1693073355.3,286047002.2,P
1693073375.1,286047002.6,P
1693073425.9,286047000.9,E
1693073435.8,286047000.7,N
1693073455.7,286047000.2,P
1693073475.5,286047000.3,N
1693073495.3,286047000.8,Y
1693073515.2,286046999.5,P
1693073535.0,286046996.8,P
1693073535.9,286046996.8,N
1693073555.8,286046997.4,N
1693073575.6,286046997.8,N
1693073595.4,286046997.6,N
1693073615.3,286046996.8,N
1693073635.1,286046996.9,N
1693073655.9,286046999.3,N
1693073675.7,286046997.4,N
1693073695.5,286046997.4,N
1693073715.4,286046997.0,N
1693073735.2,286046999.1,N
1693073755.0,286046997.6,N
1693073755.9,286046997.6,N
1693073775.8,286046995.5,Y
1693073795.6,286046999.5,P
1693073815.5,286046998.7,N
1693073835.3,286046999.0,N
1693073855.1,286046999.4,N
1693073875.9,286046996.5,Y
1693073895.7,286047001.1,P
1693073915.5,286047000.7,N
1693073935.4,286047000.7,N
1693073955.2,286046999.9,N
1693073975.1,286047000.4,N
1693073976.0,286047000.4,N
1693073995.8,286047000.6,N
1693074015.6,286047002.4,Y
1693074035.5,286047001.5,P
1693074055.3,286046999.8,N
1693074075.1,286047000.1,N
1693074095.9,286047000.6,N
1693074115.7,286047000.0,N
1693074135.6,286047002.8,Y
1693074155.4,286046999.8,P
1693074175.2,286047000.7,N
1693074195.1,286047000.8,N
1693074196.0,286047000.8,N
1693074215.8,286047002.5,Y
1693074235.7,286047000.1,P
1693074255.5,286047000.7,P
1693074275.3,286047000.3,N
1693074295.2,286047002.4,Y
1693074315.9,286046999.7,P
1693074335.7,286047001.8,P
1693074355.6,286047002.2,N
1693074375.4,286047001.9,N
1693074395.3,286047004.4,Y
1693074415.1,286047002.6,P
1693074416.0,286047002.6,P
1693074435.8,286047001.9,N
1693074455.7,286047000.6,N
1693074475.5,286047001.0,N
1693074495.3,286046998.6,N
1693074515.2,286046996.5,N
1693074535.0,286046996.9,N
1693074535.9,286046996.9,N
1693074555.8,286046996.9,N
1693074575.6,286046996.6,N
1693074595.4,286046997.1,N
1693074615.3,286046997.4,N
1693074635.1,286046994.9,N
1693074655.8,286046997.2,N
1693074675.7,286046996.7,N
1693074695.5,286046997.2,N
1693074715.4,286046999.6,N
1693074735.2,286046998.2,N
1693074755.0,286046999.0,N
1693074755.9,286046999.0,N
1693074775.8,286047001.2,N
1693074795.6,286047001.1,N
1693074815.4,286047000.9,N
1693074835.3,286046998.2,N
1693074855.1,286046998.4,N
1693074875.9,286046998.1,N
1693074895.7,286046998.2,N
1693074915.5,286046998.9,N
1693074935.4,286046999.0,N
1693074955.2,286046996.7,N
1693074975.0,286046997.0,N
1693074975.9,286046997.0,N
1693074995.8,286046999.1,N
1693075015.6,286046996.7,N
1693075035.5,286046997.7,N
1693075055.3,286046996.1,N
1693075075.1,286046993.3,Y
1693075095.9,286046997.7,P
1693075115.7,286046997.0,P
1693075135.6,286046998.7,P
1693075155.4,286047000.3,N
1693075175.2,286046999.9,N
1693075195.1,286046999.9,N
1693075196.0,286046999.9,N
1693075215.8,286047002.8,N
1693075235.6,286046999.8,N
1693075255.5,286047000.7,N
1693075275.3,286047002.8,N
1693075295.2,286047000.6,N
1693075315.9,286047002.7,N
1693075335.7,286047002.7,N
1693075355.6,286047002.3,N
1693075375.4,286047002.4,N
1693075395.2,286047002.4,N
1693075415.1,286047002.6,N
1693075416.0,286047002.6,N
1693075435.8,286047000.2,N
1693075455.7,286047000.5,N
1693075475.5,286047001.0,N
1693075495.3,286046998.1,N
1693075515.2,286047000.9,N
1693075535.0,286047001.1,N
1693075535.9,286047001.1,N
1693075555.8,286046998.3,N
1693075575.6,286047000.6,N
1693075595.4,286047000.1,N
1693075615.3,286047000.4,N
1693075635.1,286047000.1,N
1693075655.8,286047000.9,N
1693075675.7,286047000.6,N
1693075695.5,286046999.7,N
1693075715.4,286047002.3,N
1693075735.2,286047002.3,N
1693075755.0,286047000.0,N
1693075755.9,286047000.0,N
1693075775.8,286047000.6,N
1693075795.6,286047000.0,N
1693075815.5,286047000.1,N
1693075835.3,286047000.0,N
1693075855.1,286046998.2,N
1693075875.9,286046998.6,N
1693075895.7,286046998.8,N
1693075915.5,286046998.8,N
1693075935.4,286047000.8,N
1693075955.2,286046998.5,N
1693075975.1,286047000.2,N
1693075976.0,286047000.2,N
1693075995.8,286047000.6,N
1693076015.6,286046998.1,N
1693076035.5,286047001.1,N
1693076055.3,286046998.6,N
1693076075.1,286046998.4,N
1693076095.9,286047000.2,N
1693076115.7,286047000.4,N
1693076135.6,286047001.1,N
1693076155.4,286046998.4,N
1693076175.2,286047000.7,N
1693076195.1,286047000.8,N
1693076196.0,286047000.8,N
1693076215.8,286047001.2,N
1693076235.6,286047000.0,N
1693076255.5,286047002.6,N
1693076275.3,286047002.2,N
1693076295.2,286047002.7,N
1693076315.9,286047001.3,N
1693076335.7,286047003.8,N
1693076355.6,286047001.8,N
1693076375.4,286047002.0,N
1693076395.2,286047002.1,N
